Regional Weather Roundup
Issued by NWS

Home | Current Version | Previous Version | Graphics & Text | Print | Product List | Glossary On
Versions: 1 2 3 4 5 6 7 8 9 10 11 12 13 14 15 16 17 18 19 20 21 22 23 24 25 26 27 28 29 30 31 32 33 34 35 36 37 38 39 40 41 42 43 44 45 46 47 48 49 50
415
ASUS45 KCYS 310310
RWRWY

WYOMING REGIONAL WEATHER ROUNDUP
NATIONAL WEATHER SERVICE CHEYENNE WY
900 PM MDT MON MAY 30 2016

NOTE:  "FAIR" INDICATES FEW OR NO CLOUDS BELOW 12,000 FEET
WITH NO SIGNIFICANT WEATHER AND/OR OBSTRUCTIONS TO VISIBILITY.

WYZ001-310400-
YELLOWSTONE NATIONAL PARK

CITY           SKY/WX    TMP DP  RH WIND       PRES   REMARKS
LK YELLOWSTONE   N/A     47  19  33 VRB5      30.22R
W YELLOWSTONE  NOT AVBL

$$
WYZ002>013-054>058-071-098>099-310400-
NORTHERN WYOMING

CITY           SKY/WX    TMP DP  RH WIND       PRES   REMARKS
JACKSON        NOT AVBL
CODY           FAIR      50  36  57 NW5       30.13R
GREYBULL       FAIR      59  33  37 NW16      30.06R
WORLAND        CLOUDY    58  35  42 N10       30.08R
SHERIDAN       FAIR      50  44  80 W7        30.11S
BUFFALO        CLOUDY    48  42  80 N14G24    30.13R
GILLETTE       CLOUDY    47  44  90 NW8       30.10R
HULETT         CLOUDY    50  43  76 W5        30.09R
NEWCASTLE      FAIR      50  36  57 N15G21    30.05F

$$
WYZ014>020-022>026-101>103-310400-
CENTRAL WYOMING

CITY           SKY/WX    TMP DP  RH WIND       PRES   REMARKS
BIG PINEY      FAIR      47  30  51 NW8       30.16S
PINEDALE       FAIR      50  30  46 W10       30.16R
DUBOIS         FAIR      46  34  61 NW10      30.16S
LANDER         MOCLDY    55  39  54 NW5       30.11R
RIVERTON       CLOUDY    55  37  50 N16G24    30.10R
CASPER         CLOUDY    49  42  77 NE16G22   30.13R
DOUGLAS          N/A    N/A N/A N/A MISG      30.12R

$$
WYZ021-027>030-104>119-310400-
SOUTHERN WYOMING

CITY           SKY/WX    TMP DP  RH WIND       PRES   REMARKS
EVANSTON       FAIR      55  38  52 NW6       30.17S
KEMMERER         N/A     50  30  46 NW12      30.18S
FORT BRIDGER   CLEAR     57  32  38 NW12      30.19R
ROCK SPRINGS   FAIR      57  30  35 W16       30.13R
DIXON          FAIR      57  29  34 NW9       30.12R
RAWLINS        FAIR      57  26  30 NW10      30.08R
SARATOGA       FAIR      52  30  43 W8        30.11R
LARAMIE        MOCLDY    53  33  46 W9        30.09R
CHEYENNE       MOCLDY    58  42  55 SW8       30.04S
TORRINGTON     RAIN      55  48  77 N25G35    29.99R
PINE BLUFFS    FAIR      54  46  76 SE6       30.01R

$$




USA.gov is the U.S. government's official web portal to all federal, state and local government web resources and services.